Regional Weather Roundup
Issued by NWS Cleveland, OH

Home | Current Version | Previous Version | Text Only | Print | Product List | Glossary Off
Versions: 1 2 3 4 5 6 7 8 9 10 11 12 13 14 15 16 17 18 19 20 21 22 23 24 25 26 27 28 29 30 31 32 33 34 35 36 37 38 39 40 41 42 43 44 45 46 47 48 49 50

000
ASUS41 KCLE 271502
RWRCLE
OHIO REGIONAL WEATHER ROUNDUP
NATIONAL WEATHER SERVICE CLEVELAND, OH
1000 AM EST THU NOV 27 2014

NOTE: "FAIR" INDICATES FEW OR NO CLOUDS BELOW 12,000 FEET WITH NO
SIGNIFICANT WEATHER AND/OR OBSTRUCTIONS TO VISIBILITY.

OHZ001>008-015>018-024>027-034-035-043-044-271600-
   NORTHWEST OHIO

CITY           SKY/WX    TMP DP  RH WIND       PRES   REMARKS
DEFIANCE       MOSUNNY   31  23  72 W8        30.22R WCI  23
FINDLAY        PTSUNNY   32  22  66 NW9       30.18S WCI  24
TOLEDO EXPRESS CLOUDY    30  20  66 W7        30.19R WCI  23
TOLEDO EXEC    CLOUDY    32  19  58 NW10      30.19R WCI  24
LIMA           MOSUNNY   30  23  75 NW9       30.19R WCI  22
$$

OHZ009>014-019>023-028>033-038-089-271600-
   NORTHEAST OHIO

CITY           SKY/WX    TMP DP  RH WIND       PRES   REMARKS
CLE-HOPKINS    LGT SNOW  31  26  82 NW13      30.15R WCI  21
CLE-LAKEFRONT  CLOUDY    34  25  69 NW17      30.12R WCI  23
CUY CO. ARPT   NOT AVBL
LORAIN-ELYRIA  CLOUDY    30  23  75 NW14      30.15R WCI  19
ASHTABULA      LGT SNOW  31  29  92 W6        30.09R VSB 3/4 WCI  25
AKRON-CANTON   LGT SNOW  32  28  85 NW14      30.08R VSB 3/4 WCI  22
WOOSTER        LGT SNOW  30  27  88 NW14      30.12R FOG     WCI  19
MANSFIELD      CLOUDY    28  26  92 NW13      30.13R FOG     WCI  17
YOUNGSTOWN     LGT SNOW  33  30  88 W7        30.06R FOG     WCI  27
$$

OHZ042-051>053-060>062-070>072-077>081-271600-
  SOUTHWEST OHIO

CITY           SKY/WX    TMP DP  RH WIND       PRES   REMARKS
CINC-COVINGTON PTSUNNY   32  21  64 NW13      30.25R WCI  22
CINC-LUNKEN    CLOUDY    31  23  72 VRB5      30.28R WCI  26
HAMILTON       MOSUNNY   32  23  69 NW12      30.27R WCI  23
DAYTON         MOSUNNY   31  23  72 NW15      30.23R WCI  20
WRIGHT-PAT AFB FLURRIES  30  25  82 NW9       30.22R WCI  22
DAYTON GENERAL PTSUNNY   31  23  72 W13       30.22R WCI  21
WILMINGTON     LGT SNOW  30  24  78 NW10      30.20R WCI  21
$$

OHZ036-037-039>041-045>050-054>059-063>069-073>076-082>088-271600-
  CENTRAL AND SOUTHEAST OHIO

CITY           SKY/WX    TMP DP  RH WIND       PRES   REMARKS
COLUMBUS       FLURRIES  31  26  82 NW10      30.17R WCI  22
OSU AIRPORT    LGT SNOW  30  25  81 NW12      30.18R WCI  20
BOLTON FIELD   LGT SNOW  30  27  86 NW13      30.19R WCI  20
RICKENBACK AFB CLOUDY    31  26  81 NW10      30.18R HAZE    WCI  23
NEWARK         LGT SNOW  32  27  81 NW7       30.15R WCI  26
MARION         LGT SNOW  29  24  82 N14       30.18R WCI  18
LANCASTER      MIX PCPN  32  27  81 NW8       30.17R WCI  25
ZANESVILLE     CLOUDY    31  28  89 W7        30.13R FOG     WCI  24
NEW PHILLY     LGT SNOW  33  29  85 CALM      30.11R VSB 3/4
$$



USA.gov is the U.S. government's official web portal to all federal, state and local government web resources and services.